TimeCDT,TemperatureF,Dew PointF,Humidity,Sea Level PressureIn,VisibilityMPH,Wind Direction,Wind SpeedMPH,Gust SpeedMPH,PrecipitationIn,Events,Conditions,WindDirDegrees,DateUTC
12:15 AM,30.0,18.3,62,30.06,10.0,WNW,8.1,-,N/A,,Clear,290,2013-03-19 05:15:00
12:35 AM,29.7,17.4,60,30.05,10.0,NW,6.9,-,N/A,,Clear,310,2013-03-19 05:35:00
12:55 AM,28.4,18.1,65,30.06,10.0,NW,5.8,-,N/A,,Clear,310,2013-03-19 05:55:00
1:15 AM,28.2,18.1,66,30.06,10.0,NW,5.8,-,N/A,,Clear,320,2013-03-19 06:15:00
1:35 AM,28.4,17.8,64,30.06,10.0,NW,5.8,-,N/A,,Clear,320,2013-03-19 06:35:00
1:55 AM,27.9,18.5,68,30.07,10.0,NW,3.5,-,N/A,,Clear,310,2013-03-19 06:55:00
2:15 AM,28.0,19.4,70,30.07,10.0,NW,4.6,-,N/A,,Clear,310,2013-03-19 07:15:00
2:35 AM,28.0,19.2,70,30.08,10.0,NW,4.6,-,N/A,,Clear,310,2013-03-19 07:35:00
2:55 AM,28.2,18.5,67,30.09,10.0,NW,4.6,-,N/A,,Clear,320,2013-03-19 07:55:00
3:15 AM,27.3,18.3,69,30.08,10.0,NNW,4.6,-,N/A,,Clear,340,2013-03-19 08:15:00
3:35 AM,26.6,19.4,74,30.08,10.0,North,4.6,-,N/A,,Clear,350,2013-03-19 08:35:00
3:55 AM,26.1,20.3,79,30.08,10.0,North,4.6,-,N/A,,Clear,360,2013-03-19 08:55:00
4:15 AM,25.5,19.9,79,30.07,10.0,North,4.6,-,N/A,,Clear,10,2013-03-19 09:15:00
4:35 AM,24.4,19.4,81,30.07,10.0,NNE,3.5,-,N/A,,Clear,20,2013-03-19 09:35:00
5:15 AM,22.8,18.5,83,30.08,10.0,Calm,Calm,-,N/A,,Clear,0,2013-03-19 10:15:00
5:35 AM,22.3,18.3,85,30.09,10.0,Calm,Calm,-,N/A,,Clear,0,2013-03-19 10:35:00
5:55 AM,22.5,18.3,84,30.09,10.0,Calm,Calm,-,N/A,,Clear,0,2013-03-19 10:55:00
6:15 AM,21.9,17.8,84,30.10,10.0,Calm,Calm,-,N/A,,Clear,0,2013-03-19 11:15:00
6:35 AM,22.1,18.5,86,30.11,10.0,Calm,Calm,-,N/A,,Clear,0,2013-03-19 11:35:00
6:55 AM,22.6,18.1,83,30.11,10.0,Calm,Calm,-,N/A,,Clear,0,2013-03-19 11:55:00
7:15 AM,22.5,17.6,82,30.11,10.0,Calm,Calm,-,N/A,,Clear,0,2013-03-19 12:15:00
7:35 AM,22.3,18.5,85,30.12,10.0,Calm,Calm,-,N/A,,Clear,0,2013-03-19 12:35:00
7:55 AM,23.0,18.0,81,30.13,10.0,North,3.5,-,N/A,,Clear,10,2013-03-19 12:55:00
8:15 AM,23.7,17.4,77,30.13,10.0,Calm,Calm,-,N/A,,Clear,0,2013-03-19 13:15:00
8:35 AM,23.9,18.0,78,30.13,10.0,Calm,Calm,-,N/A,,Clear,0,2013-03-19 13:35:00
8:55 AM,24.4,16.2,71,30.14,10.0,Calm,Calm,-,N/A,,Clear,0,2013-03-19 13:55:00
9:15 AM,24.8,15.4,68,30.16,10.0,Calm,Calm,-,N/A,,Clear,0,2013-03-19 14:15:00
9:35 AM,25.3,15.3,66,30.17,10.0,Calm,Calm,-,N/A,,Clear,0,2013-03-19 14:35:00
9:55 AM,25.9,15.8,66,30.18,10.0,Calm,Calm,-,N/A,,Clear,0,2013-03-19 14:55:00
10:15 AM,27.1,16.0,63,30.18,10.0,Calm,Calm,-,N/A,,Clear,0,2013-03-19 15:15:00
10:35 AM,28.0,16.9,63,30.18,10.0,Calm,Calm,-,N/A,,Clear,0,2013-03-19 15:35:00
10:55 AM,29.5,18.5,64,30.18,10.0,South,3.5,-,N/A,,Mostly Cloudy,170,2013-03-19 15:55:00
11:15 AM,30.9,19.0,61,30.18,10.0,SSW,5.8,-,N/A,,Scattered Clouds,200,2013-03-19 16:15:00
11:35 AM,31.5,18.5,59,30.19,10.0,South,3.5,-,N/A,,Clear,170,2013-03-19 16:35:00
11:55 AM,32.2,18.5,57,30.18,10.0,SSE,5.8,-,N/A,,Clear,160,2013-03-19 16:55:00
12:15 PM,34.2,18.7,53,30.17,10.0,South,4.6,-,N/A,,Clear,180,2013-03-19 17:15:00
12:35 PM,35.6,18.7,50,30.17,10.0,South,8.1,-,N/A,,Clear,170,2013-03-19 17:35:00
12:55 PM,38.5,20.1,48,30.17,10.0,South,8.1,-,N/A,,Clear,170,2013-03-19 17:55:00
1:15 PM,40.1,20.7,46,30.16,10.0,SSW,11.5,-,N/A,,Clear,210,2013-03-19 18:15:00
1:35 PM,41.7,21.6,45,30.16,10.0,SSW,11.5,16.1,N/A,,Clear,210,2013-03-19 18:35:00
1:55 PM,44.4,22.5,42,30.14,10.0,SSW,9.2,-,N/A,,Clear,200,2013-03-19 18:55:00
2:15 PM,46.9,25.2,43,30.13,10.0,SW,8.1,-,N/A,,Clear,230,2013-03-19 19:15:00
2:35 PM,48.9,27.7,44,30.12,10.0,West,6.9,-,N/A,,Scattered Clouds,270,2013-03-19 19:35:00
2:55 PM,49.6,24.6,38,30.11,10.0,WNW,13.8,19.6,N/A,,Scattered Clouds,290,2013-03-19 19:55:00
3:15 PM,49.8,24.6,37,30.10,10.0,WNW,5.8,-,N/A,,Mostly Cloudy,300,2013-03-19 20:15:00
3:35 PM,48.4,24.6,39,30.10,10.0,WNW,10.4,-,N/A,,Mostly Cloudy,290,2013-03-19 20:35:00
3:55 PM,50.5,25.7,38,30.10,10.0,NNW,13.8,27.6,N/A,,Mostly Cloudy,340,2013-03-19 20:55:00
4:15 PM,51.8,20.1,29,30.10,10.0,NNW,21.9,27.6,N/A,,Scattered Clouds,330,2013-03-19 21:15:00
4:35 PM,50.2,20.3,31,30.11,10.0,NNW,16.1,25.3,N/A,,Scattered Clouds,330,2013-03-19 21:35:00
4:55 PM,50.5,19.2,29,30.12,10.0,NNW,18.4,26.5,N/A,,Scattered Clouds,330,2013-03-19 21:55:00
5:15 PM,50.0,21.0,32,30.12,10.0,North,23.0,28.8,N/A,,Clear,350,2013-03-19 22:15:00
5:35 PM,49.1,21.7,34,30.13,10.0,NNW,19.6,28.8,N/A,,Clear,340,2013-03-19 22:35:00
5:55 PM,48.4,23.2,37,30.14,10.0,North,18.4,25.3,N/A,,Clear,360,2013-03-19 22:55:00
6:15 PM,47.1,20.7,35,30.15,10.0,North,16.1,25.3,N/A,,Clear,350,2013-03-19 23:15:00
6:35 PM,46.4,21.6,37,30.15,10.0,North,15.0,19.6,N/A,,Clear,360,2013-03-19 23:35:00
6:55 PM,43.3,24.3,47,30.16,10.0,North,12.7,-,N/A,,Clear,360,2013-03-19 23:55:00
7:15 PM,41.5,25.7,53,30.17,10.0,NNE,9.2,-,N/A,,Clear,20,2013-03-20 00:15:00
7:35 PM,38.3,25.7,61,30.18,10.0,North,9.2,-,N/A,,Clear,10,2013-03-20 00:35:00
7:55 PM,36.3,24.6,63,30.19,10.0,North,8.1,-,N/A,,Clear,360,2013-03-20 00:55:00
8:15 PM,33.8,25.3,71,30.20,10.0,North,9.2,-,N/A,,Clear,350,2013-03-20 01:15:00
8:35 PM,34.2,25.7,71,30.22,10.0,North,10.4,-,N/A,,Clear,360,2013-03-20 01:35:00
8:55 PM,35.1,24.8,66,30.23,10.0,North,13.8,-,N/A,,Clear,360,2013-03-20 01:55:00
9:15 PM,34.2,25.0,69,30.24,10.0,North,16.1,20.7,N/A,,Clear,360,2013-03-20 02:15:00
9:35 PM,33.1,24.1,70,30.25,10.0,North,16.1,23.0,N/A,,Clear,360,2013-03-20 02:35:00
9:55 PM,32.0,23.7,71,30.27,10.0,North,17.3,-,N/A,,Clear,360,2013-03-20 02:55:00
10:15 PM,32.0,23.4,70,30.28,10.0,North,18.4,24.2,N/A,,Clear,360,2013-03-20 03:15:00
10:35 PM,30.4,22.3,72,30.30,10.0,North,19.6,26.5,N/A,,Clear,360,2013-03-20 03:35:00
10:55 PM,29.1,20.7,71,30.31,10.0,North,21.9,28.8,N/A,,Clear,360,2013-03-20 03:55:00
11:15 PM,28.4,20.1,71,30.33,10.0,North,15.0,20.7,N/A,,Clear,350,2013-03-20 04:15:00
11:35 PM,27.5,19.6,72,30.33,10.0,NNW,15.0,-,N/A,,Clear,340,2013-03-20 04:35:00
11:55 PM,26.4,17.8,70,30.34,10.0,NNW,19.6,25.3,N/A,,Clear,340,2013-03-20 04:55:00